Terminal Aerodrome Forecast
Issued by NWS Pendleton, OR

Home | Current Version | Previous Version | Text Only | Print | Product List | Glossary On
Versions: 1 2 3 4 5 6 7 8 9 10 11 12 13 14 15 16 17 18 19 20 21 22 23 24 25 26
000
FTUS46 KPDT 011700
TAFPDT
TAF
KPDT 011735Z 0118/0218 30006KT 3SM -SHRA BR SCT003 OVC010
     FM012000 25006KT 5SM -RA BR BKN030 OVC040
     FM020600 22007KT P6SM SCT020 BKN040
     FM021200 15005KT P6SM SCT025 BKN200=

USA.gov is the U.S. government's official web portal to all federal, state and local government web resources and services.